Weather History for Beaufort, NC

Change the Weather History Date:

Sunday, August 11, 2013

  Actual Average Record
Temperature  
Mean Temperature 80 °F -  
Max Temperature 86 °F 86 °F 97 °F (2011)
Min Temperature 75 °F 72 °F 60 °F (2002)
Cooling Degree Days 14    
Growing Degree Days 30 (Base 50)    
Moisture  
Dew Point 77 °F    
Average Humidity 89    
Maximum Humidity 97    
Minimum Humidity 76    
Precipitation  
Precipitation 0.00 in - - ()
Sea Level Pressure  
Sea Level Pressure 30.08 in    
Wind  
Wind Speed 7 mph (SW)    
Max Wind Speed 12 mph    
Max Gust Speed -    
Visibility 9 miles    
Events      
Averages and records for this station are not official NWS values.
T = Trace of Precipitation, MM = Missing Value Source: NWS Daily Summary

Daily Weather History Graph

Daily Weather History Graph

Search for Another Location

Airport:

Trip Planner

Search our weather history database for the weather conditions in past years. The results will help you decide how hot, cold, wet, or windy it might be!

Date:

Astronomy

Aug. 11, 2013 Rise Set
Actual Time 6:24 AM EDT 7:58 PM EDT
Civil Twilight 5:57 AM EDT 8:25 PM EDT
Nautical Twilight 5:24 AM EDT 8:57 PM EDT
Astronomical Twilight 4:50 AM EDT 9:31 PM EDT
Moon 10:55 AM EDT (8/11) 10:28 PM EDT (8/11)
Length of Visible Light 14h 28m
Length of Day
13h 34m
Waxing Crescent, 22% of the Moon is Illuminated
Aug 11
Waxing Crescent
Aug 14
First Quarter
Aug 20
Full
Aug 28
Last Quarter
Sep 5
New

Hourly Weather History & Observations

Time (EDT) Temp. Heat Index Dew Point Humidity Pressure Visibility Wind Dir Wind Speed Gust Speed Precip Events Conditions
12:58 AM 75.0 °F - 73.9 °F 96% 30.08 in 10.0 mi SSE 3.5 mph - N/A   Clear
1:58 AM 78.1 °F - 77.0 °F 96% 30.08 in 10.0 mi SSW 4.6 mph - N/A   Clear
2:58 AM 79.0 °F - 78.1 °F 97% 30.07 in 10.0 mi SW 8.1 mph - N/A   Clear
3:58 AM 79.0 °F - 77.0 °F 94% 30.07 in 10.0 mi SW 10.4 mph - N/A   Clear
4:58 AM 79.0 °F - 77.0 °F 94% 30.08 in 10.0 mi WSW 8.1 mph - N/A   Clear
5:58 AM 79.0 °F - 77.0 °F 94% 30.10 in 10.0 mi WSW 6.9 mph - N/A   Clear
6:58 AM 78.1 °F - 77.0 °F 96% 30.11 in 8.0 mi WSW 5.8 mph - N/A   Clear
7:58 AM 80.1 °F 86.4 °F 78.1 °F 94% 30.12 in 8.0 mi West 6.9 mph - N/A   Clear
8:58 AM 82.0 °F 91.0 °F 78.1 °F 88% 30.12 in 9.0 mi WNW 9.2 mph - N/A   Clear
9:58 AM 84.0 °F 94.8 °F 78.1 °F 82% 30.12 in 10.0 mi NW 8.1 mph - N/A   Clear
10:58 AM 84.0 °F 93.7 °F 77.0 °F 79% 30.12 in 10.0 mi NNW 4.6 mph - N/A   Mostly Cloudy
11:22 AM 84.2 °F 96.1 °F 78.8 °F 84% 30.11 in 9.0 mi SSW 6.9 mph - N/A   Scattered Clouds
11:58 AM 84.0 °F 94.8 °F 78.1 °F 82% 30.11 in 10.0 mi SW 8.1 mph - N/A   Clear
12:58 PM 84.9 °F 96.6 °F 78.1 °F 80% 30.10 in 9.0 mi SW 10.4 mph - N/A   Clear
1:58 PM 84.9 °F 97.5 °F 79.0 °F 82% 30.08 in 9.0 mi SSW 11.5 mph - N/A   Clear
2:58 PM 82.9 °F 91.8 °F 77.0 °F 82% 30.09 in 10.0 mi SW 9.2 mph - N/A   Mostly Cloudy
3:58 PM 82.0 °F 91.0 °F 78.1 °F 88% 30.05 in 9.0 mi SW 10.4 mph - 0.00 in   Clear
4:58 PM 81.0 °F 86.2 °F 73.9 °F 79% 30.05 in 10.0 mi SSW 6.9 mph - N/A   Partly Cloudy
5:58 PM 82.0 °F 87.9 °F 73.9 °F 76% 30.05 in 10.0 mi SSW 6.9 mph - N/A   Clear
6:58 PM 82.0 °F 89.4 °F 75.9 °F 82% 30.04 in 10.0 mi SW 6.9 mph - N/A   Clear
7:58 PM 81.0 °F 89.2 °F 79.0 °F 94% 30.05 in 8.0 mi SSW 11.5 mph - N/A   Clear
8:58 PM 80.1 °F 86.4 °F 78.1 °F 94% 30.05 in 9.0 mi SSW 10.4 mph - N/A   Partly Cloudy
9:58 PM 81.0 °F 89.2 °F 79.0 °F 94% 30.06 in 9.0 mi SW 8.1 mph - N/A   Clear
10:58 PM 81.0 °F 89.9 °F 80.1 °F 97% 30.07 in 9.0 mi SW 10.4 mph - N/A   Overcast
11:58 PM 81.0 °F 89.9 °F 80.1 °F 97% 30.07 in 8.0 mi SW 10.4 mph - N/A   Mostly Cloudy